KC3BHK-2 Weather Reports


Display with metric or nautical units.
time (UTC)temp
F
wind
direction
speed
MPH
gust
MPH
rain 1hr
in
rain 24hr
in
rain mn
in
humidity
%
barometer
mb
20260509214908 77 28 2.0 5.0 0.00 0.00 0.00
20260509214401 79 89 0.0 6.0 0.00 0.00 0.00
20260509213856 78 17 3.0 6.0 0.00 0.00 0.00
20260509213351 78 14 4.0 6.0 0.00 0.00 0.00
20260509212846 78 23 0.0 7.0 0.00 0.00 0.00
20260509212341 77 34 1.0 9.0 0.00 0.00 0.00
20260509211836 75 52 1.0 7.0 0.00 0.00 0.00
20260509211329 75 27 1.0 6.0 0.00 0.00 0.00
20260509210824 73 23 0.0 6.0 0.00 0.00 0.00
20260509210319 74 11 1.0 8.0 0.00 0.00 0.00
20260509205815 74 295 2.0 6.0 0.00 0.00 0.00
20260509205310 74 243 1.0 6.0 0.00 0.00 0.00
20260509204805 73 27 1.0 6.0 0.00 0.00 0.00
20260509204257 72 295 1.0 2.0 0.00 0.00 0.00
20260509203248 72 281 2.0 5.0 0.00 0.00 0.00
20260509202743 73 304 0.0 3.0 0.00 0.00 0.00
20260509201734 73 307 1.0 2.0 0.00 0.00 0.00
20260509201226 73 60 0.0 6.0 0.00 0.00 0.00
20260509200722 72 198 3.0 7.0 0.00 0.00 0.00
20260509195712 71 141 2.0 8.0 0.00 0.00 0.00
20260509195208 74 118 5.0 12.0 0.00 0.00 0.00
20260509194703 74 236 4.0 8.0 0.00 0.00 0.00
20260509194155 75 141 3.0 9.0 0.00 0.00 0.00
20260509193146 78 138 4.0 2.0 0.00 0.00 0.00
20260509192137 73 163 1.0 7.0 0.00 0.00 0.00
20260509191632 76 221 5.0 8.0 0.00 0.00 0.00
20260509191124 73 105 5.0 7.0 0.00 0.00 0.00
20260509190620 73 214 1.0 5.0 0.00 0.00 0.00
20260509190115 73 113 2.0 5.0 0.00 0.00 0.00
20260509185610 76 177 5.0 5.0 0.00 0.00 0.00
20260509185106 78 108 2.0 6.0 0.00 0.00 0.00
20260509184601 75 1 0.0 7.0 0.00 0.00 0.00
20260509184053 76 134 3.0 6.0 0.00 0.00 0.00
20260509183549 75 167 2.0 10.0 0.00 0.00 0.00
20260509183044 75 20 2.0 7.0 0.00 0.00 0.00
20260509182539 77 124 4.0 8.0 0.00 0.00 0.00
20260509182035 74 79 2.0 6.0 0.00 0.00 0.00
20260509181530 76 73 0.0 5.0 0.00 0.00 0.00
20260509181022 72 87 1.0 4.0 0.00 0.00 0.00
20260509180518 73 31 1.0 5.0 0.00 0.00 0.00
20260509180012 73 38 0.0 5.0 0.00 0.00 0.00
20260509175507 70 304 0.0 4.0 0.00 0.00 0.00
20260509175003 70 342 0.0 2.0 0.00 0.00 0.00
20260509174458 73 83 0.0 4.0 0.00 0.00 0.00
20260509173949 72 48 0.0 4.0 0.00 0.00 0.00
20260509173444 69 31 1.0 4.0 0.00 0.00 0.00
20260509172940 68 60 0.0 2.0 0.00 0.00 0.00
20260509172435 68 63 0.0 2.0 0.00 0.00 0.00
20260509171930 67 35 0.0 2.0 0.00 0.00 0.00
20260509171426 66 32 1.0 2.0 0.00 0.00 0.00
20260509170918 67 53 0.0 3.0 0.00 0.00 0.00
20260509170413 66 41 2.0 3.0 0.00 0.00 0.00
20260509165908 66 35 1.0 1.0 0.00 0.00 0.00
20260509165404 68 65 1.0 5.0 0.00 0.00 0.00
20260509164859 68 13 4.0 7.0 0.00 0.00 0.00
20260509164354 70 288 0.0 6.0 0.00 0.00 0.00
20260509163847 70 60 0.0 5.0 0.00 0.00 0.00
20260509163341 71 359 4.0 6.0 0.00 0.00 0.00
20260509162836 72 56 0.0 5.0 0.00 0.00 0.00
20260509162332 71 11 1.0 5.0 0.00 0.00 0.00
20260509161826 69 35 3.0 0.0 0.00 0.00 0.00
20260509161321 67 262 0.0 5.0 0.00 0.00 0.00
20260509160814 68 45 1.0 5.0 0.00 0.00 0.00
20260509160309 69 49 0.0 3.0 0.00 0.00 0.00
20260509155804 69 314 0.0 5.0 0.00 0.00 0.00
20260509155259 70 44 1.0 5.0 0.00 0.00 0.00
20260509154755 69 349 4.0 3.0 0.00 0.00 0.00
20260509154250 68 353 0.0 1.0 0.00 0.00 0.00
20260509153742 66 70 0.0 0.0 0.00 0.00 0.00
20260509153238 67 70 0.0 3.0 0.00 0.00 0.00
20260509152733 68 359 1.0 5.0 0.00 0.00 0.00
20260509152228 65 35 0.0 4.0 0.00 0.00 0.00
20260509151723 66 32 2.0 5.0 0.00 0.00 0.00
20260509151218 66 264 0.0 2.0 0.00 0.00 0.00
20260509150711 66 104 1.0 6.0 0.00 0.00 0.00
20260509150206 64 136 4.0 5.0 0.00 0.00 0.00
20260509145701 64 139 3.0 7.0 0.00 0.00 0.00
20260509145156 62 167 5.0 8.0 0.00 0.00 0.00
20260509144652 62 231 6.0 7.0 0.00 0.00 0.00
20260509144147 61 215 5.0 7.0 0.00 0.00 0.00
20260509143639 62 173 3.0 7.0 0.00 0.00 0.00
20260509143134 60 205 6.0 8.0 0.00 0.00 0.00
20260509142629 61 239 5.0 6.0 0.00 0.00 0.00
20260509142125 61 200 5.0 5.0 0.00 0.00 0.00
20260509141620 62 142 3.0 4.0 0.00 0.00 0.00
20260509141115 61 134 3.0 5.0 0.00 0.00 0.00
20260509140608 60 155 2.0 4.0 0.00 0.00 0.00
20260509135558 60 96 0.0 4.0 0.00 0.00 0.00
20260509135053 60 96 0.0 3.0 0.00 0.00 0.00
20260509134549 60 158 2.0 6.0 0.00 0.00 0.00
20260509134044 59 176 4.0 5.0 0.00 0.00 0.00
20260509133031 60 165 3.0 7.0 0.00 0.00 0.00
20260509132527 61 181 4.0 7.0 0.00 0.00 0.00
20260509132022 59 187 3.0 8.0 0.00 0.00 0.00
20260509131517 59 179 4.0 7.0 0.00 0.00 0.00
20260509131012 59 155 4.0 4.0 0.00 0.00 0.00
20260509130505 59 219 2.0 0.0 0.00 0.00 0.00
20260509130000 60 120 0.0 3.0 0.00 0.00 0.00
20260509125455 58 120 0.0 3.0 0.00 0.00 0.00
20260509124950 58 208 2.0 4.0 0.00 0.00 0.00
20260509124446 58 221 3.0 6.0 0.00 0.00 0.00
20260509123941 58 186 1.0 8.0 0.00 0.00 0.00
20260509123433 59 98 4.0 5.0 0.00 0.00 0.00
20260509122928 57 163 2.0 7.0 0.00 0.00 0.00
20260509122423 58 160 4.0 7.0 0.00 0.00 0.00
20260509121918 58 120 6.0 3.0 0.00 0.00 0.00
20260509121413 58 172 0.0 2.0 0.00 0.00 0.00
20260509120908 58 172 0.0 4.0 0.00 0.00 0.00
20260509120400 57 134 3.0 3.0 0.00 0.00 0.00
20260509115856 57 188 1.0 7.0 0.00 0.00 0.00
20260509115351 56 122 3.0 9.0 0.00 0.00 0.00
20260509114846 57 142 7.0 3.0 0.00 0.00 0.00
20260509114341 56 201 2.0 3.0 0.00 0.00 0.00
20260509113837 56 97 0.0 3.0 0.00 0.00 0.00
20260509113329 55 72 1.0 3.0 0.00 0.00 0.00
20260509112824 55 142 2.0 3.0 0.00 0.00 0.00
20260509112318 54 249 1.0 5.0 0.00 0.00 0.00
20260509111813 53 277 3.0 4.0 0.00 0.00 0.00
20260509111308 53 173 0.0 0.0 0.00 0.00 0.00
20260509110804 53 173 0.0 0.0 0.00 0.00 0.00
20260509110256 52 173 0.0 0.0 0.00 0.00 0.00
20260509105751 53 173 0.0 0.0 0.00 0.00 0.00
20260509105246 52 173 0.0 0.0 0.00 0.00 0.00
20260509104741 51 173 0.0 0.0 0.00 0.00 0.00
20260509104237 52 173 0.0 0.0 0.00 0.00 0.00
20260509103732 52 173 0.0 0.0 0.00 0.00 0.00
20260509103224 52 173 0.0 0.0 0.00 0.00 0.00
20260509102719 51 173 0.0 0.0 0.00 0.00 0.00
20260509102214 51 173 0.0 0.0 0.00 0.00 0.00
20260509101205 51 173 0.0 0.0 0.00 0.00 0.00
20260509100700 51 173 0.0 0.0 0.00 0.00 0.00
20260509100152 50 173 0.0 0.0 0.00 0.00 0.00
20260509095647 52 173 0.0 0.0 0.00 0.00 0.00
20260509095142 52 173 0.0 0.0 0.00 0.00 0.00
20260509094637 51 173 0.0 0.0 0.00 0.00 0.00
20260509094132 52 173 0.0 2.0 0.00 0.00 0.00
20260509093627 53 173 0.0 3.0 0.00 0.00 0.00
20260509093119 51 229 2.0 0.0 0.00 0.00 0.00
20260509092822 52 270 0.0 0.0 0.00 0.00 0.00
20260509092615 52 270 0.0 0.0 0.00 0.00 0.00
20260509092110 52 270 0.0 0.0 0.00 0.00 0.00
20260509091605 51 270 0.0 0.0 0.00 0.00 0.00
20260509091100 52 270 0.0 0.0 0.00 0.00 0.00
20260509090555 52 270 0.0 0.0 0.00 0.00 0.00
20260509090047 53 270 0.0 0.0 0.00 0.00 0.00
20260509085542 53 270 0.0 1.0 0.00 0.00 0.00
20260509085037 52 270 0.0 3.0 0.00 0.00 0.00
20260509084532 52 212 1.0 2.0 0.00 0.00 0.00
20260509084027 52 246 0.0 2.0 0.00 0.00 0.00
20260509083523 51 259 0.0 3.0 0.00 0.00 0.00
20260509083015 51 255 0.0 0.0 0.00 0.00 0.00
20260509082510 52 255 0.0 2.0 0.00 0.00 0.00
20260509082005 51 255 0.0 2.0 0.00 0.00 0.00
20260509081500 52 273 0.0 2.0 0.00 0.00 0.00
20260509080956 52 291 0.0 1.0 0.00 0.00 0.00
20260509080451 52 186 0.0 2.0 0.00 0.00 0.00
20260509075438 50 224 2.0 2.0 0.00 0.00 0.00
20260509074933 51 232 0.0 0.0 0.00 0.00 0.00
20260509074428 51 232 0.0 0.0 0.00 0.00 0.00
20260509073923 51 232 0.0 0.0 0.00 0.00 0.00
20260509073418 51 232 0.0 0.0 0.00 0.00 0.00
20260509072911 51 232 0.0 0.0 0.00 0.00 0.00
20260509072406 51 232 0.0 0.0 0.00 0.00 0.00
20260509071901 51 232 0.0 2.0 0.00 0.00 0.00
20260509071356 52 225 1.0 3.0 0.00 0.00 0.00
20260509070346 51 222 1.0 2.0 0.00 0.00 0.00
20260509065838 50 198 2.0 2.0 0.00 0.00 0.00
20260509065333 51 155 1.0 2.0 0.00 0.00 0.00
20260509064828 51 203 2.0 3.0 0.00 0.00 0.00
20260509064323 50 145 1.0 3.0 0.00 0.00 0.00
20260509063818 48 134 0.0 0.0 0.00 0.00 0.00
20260509063313 48 134 0.0 0.0 0.00 0.00 0.00
20260509062805 49 134 0.0 0.0 0.00 0.00 0.00
20260509062300 47 134 0.0 0.0 0.00 0.00 0.00
20260509061755 46 134 0.0 0.0 0.00 0.00 0.00
20260509061249 47 134 0.0 0.0 0.00 0.00 0.00
20260509060744 48 134 0.0 0.0 0.00 0.00 0.00
20260509060240 47 134 0.0 0.0 0.00 0.00 0.00
20260509055732 47 134 0.0 0.0 0.00 0.00 0.00
20260509055227 47 134 0.0 0.0 0.00 0.00 0.00
20260509054722 47 134 0.0 0.0 0.00 0.00 0.00
20260509054217 47 134 0.0 0.0 0.00 0.00 0.00
20260509053712 47 134 0.0 0.0 0.00 0.00 0.00
20260509053207 46 134 0.0 0.0 0.00 0.00 0.00
20260509052659 45 134 0.0 0.0 0.00 0.00 0.00
20260509052154 45 134 0.0 0.0 0.00 0.00 0.00
20260509051649 45 134 0.0 0.0 0.00 0.00 0.00
20260509051144 45 134 0.0 0.0 0.00 0.00 0.00
20260509050639 45 134 0.0 0.0 0.00 0.00 0.00
20260509050135 45 134 0.0 0.0 0.00 0.00 0.00
20260509045627 45 134 0.0 0.0 0.00 0.00 0.00
20260509045122 45 134 0.0 0.0 0.00 0.00 0.00
20260509044617 45 134 0.0 0.0 0.00 0.00 0.00
20260509044112 45 134 0.0 0.0 0.00 0.00 0.00
20260509043607 45 134 0.0 0.0 0.00 0.00 0.00
20260509043101 45 134 0.0 0.0 0.00 0.00 0.00
20260509042553 45 134 0.0 0.0 0.00 0.00 0.00
20260509042048 46 134 0.0 0.0 0.00 0.00 0.00
20260509041543 47 134 0.0 0.0 0.00 0.00 0.00
20260509041038 45 134 0.0 0.0 0.00 0.00 0.00
20260509040533 46 134 0.0 0.0 0.00 0.00 0.00
20260509040029 47 134 0.0 0.0 0.00 0.00 0.00
20260509035521 46 134 0.0 0.0 0.00 0.00 0.00
20260509035016 46 134 0.0 0.0 0.00 0.00 0.00
20260509034511 46 134 0.0 0.0 0.00 0.00 0.00
20260509034006 46 134 0.0 0.0 0.00 0.00 0.00
20260509033502 47 134 0.0 0.0 0.00 0.00 0.00
20260509032957 48 134 0.0 0.0 0.00 0.00 0.00
20260509032449 48 134 0.0 0.0 0.00 0.00 0.00
20260509031944 48 134 0.0 0.0 0.00 0.00 0.00
20260509031439 48 124 0.0 0.0 0.00 0.00 0.00
20260509030934 49 124 0.0 0.0 0.00 0.00 0.00
20260509030430 49 124 0.0 0.0 0.00 0.00 0.00
20260509025925 50 124 0.0 0.0 0.00 0.00 0.00
20260509025417 50 124 0.0 0.0 0.00 0.00 0.00
20260509024912 49 124 0.0 0.0 0.00 0.00 0.00
20260509024408 50 124 0.0 0.0 0.00 0.00 0.00
20260509023903 49 124 0.0 0.0 0.00 0.00 0.00
20260509023358 50 124 0.0 0.0 0.00 0.00 0.00
20260509022852 50 124 0.0 0.0 0.00 0.00 0.00
20260509022344 51 124 0.0 0.0 0.00 0.00 0.00
20260509021839 52 124 0.0 0.0 0.00 0.00 0.00
20260509021335 51 124 0.0 0.0 0.00 0.00 0.00
20260509020830 52 124 0.0 1.0 0.00 0.00 0.00
20260509015821 53 188 0.0 0.0 0.00 0.00 0.00
20260509015313 53 188 0.0 0.0 0.00 0.00 0.00
20260509014808 54 188 0.0 5.0 0.00 0.00 0.00
20260509014304 53 222 2.0 7.0 0.00 0.00 0.00
20260509013759 54 204 0.0 0.0 0.00 0.00 0.00
20260509013254 55 204 0.0 0.0 0.00 0.00 0.00
20260509012749 56 204 0.0 0.0 0.00 0.00 0.00
20260509012242 56 204 0.0 0.0 0.00 0.00 0.00
20260509011737 55 204 0.0 0.0 0.00 0.00 0.00
20260509011232 55 204 0.0 0.0 0.00 0.00 0.00
20260509010727 57 204 0.0 0.0 0.00 0.00 0.00
20260509010222 58 204 0.0 0.0 0.00 0.00 0.00
20260509005717 58 204 0.0 0.0 0.00 0.00 0.00
20260509005209 58 204 0.0 0.0 0.00 0.00 0.00
20260509004200 59 204 0.0 0.0 0.00 0.00 0.00
20260509003655 60 204 0.0 0.0 0.00 0.00 0.00
20260509003150 60 204 0.0 0.0 0.00 0.00 0.00
20260509002646 61 204 0.0 0.0 0.00 0.00 0.00
20260509002138 60 204 0.0 0.0 0.00 0.00 0.00
20260509001633 60 204 0.0 0.0 0.00 0.00 0.00
20260509001128 62 204 0.0 0.0 0.00 0.00 0.00
20260509000624 61 204 0.0 0.0 0.00 0.00 0.00
20260509000119 62 204 0.0 0.0 0.00 0.00 0.00
20260508235614 63 204 0.0 0.0 0.00 0.00 0.00
20260508235106 62 204 0.0 0.0 0.00 0.00 0.00
20260508234602 62 204 0.0 0.0 0.00 0.00 0.00
20260508234057 64 204 0.0 0.0 0.00 0.00 0.00
20260508233552 65 204 0.0 0.0 0.00 0.00 0.00
20260508233047 65 204 0.0 0.0 0.00 0.00 0.00
20260508232543 65 204 0.0 4.0 0.00 0.00 0.00
20260508232034 65 262 3.0 0.0 0.00 0.00 0.00
20260508231529 65 266 0.0 2.0 0.00 0.00 0.00
20260508231024 66 266 0.0 3.0 0.00 0.00 0.00
20260508230520 66 222 0.0 2.0 0.00 0.00 0.00
20260508230014 66 222 0.0 5.0 0.00 0.00 0.00
20260508225509 66 276 0.0 2.0 0.00 0.00 0.00
20260508225002 66 287 1.0 4.0 0.00 0.00 0.00
20260508224457 66 354 1.0 5.0 0.00 0.00 0.00
20260508223952 66 293 0.0 9.0 0.00 0.00 0.00
20260508223447 68 274 2.0 6.0 0.00 0.00 0.00
20260508222943 68 281 5.0 4.0 0.00 0.00 0.00
20260508222438 67 269 2.0 7.0 0.00 0.00 0.00
20260508221930 68 259 1.0 6.0 0.00 0.00 0.00
20260508221426 68 357 1.0 6.0 0.00 0.00 0.00
20260508220921 69 280 2.0 7.0 0.00 0.00 0.00
20260508220416 68 291 0.0 6.0 0.00 0.00 0.00
20260508215911 67 101 1.0 6.0 0.00 0.00 0.00